KL7GG Weather Reports


Display with metric or nautical units.
time (UTC)temp
F
wind
direction
speed
MPH
gust
MPH
rain 1hr
in
rain 24hr
in
rain mn
in
humidity
%
barometer
mb
20260906045300 57 0 0.0 0.0 0.00 0.00 0.00 78 1015.1
20260906043755 58 0 0.0 0.0 0.00 0.00 0.00 76 1015.1
20260906042251 59 0 0.0 5.0 0.00 0.00 0.00 72 1015.1
20260906040748 61 0 0.0 0.0 0.00 0.00 0.00 70 1015.0
20260906035243 62 0 0.0 6.0 0.00 0.00 0.00 67 1014.9
20260906033737 63 284 1.0 6.0 0.00 0.00 0.00 67 1014.9
20260906032234 64 0 0.0 9.0 0.00 0.00 0.00 64 1014.8
20260906025225 66 306 1.0 11.0 0.00 0.00 0.00 59 1014.7
20260906023722 66 342 1.0 10.0 0.00 0.00 0.00 58 1014.6
20260906022217 67 314 2.0 9.0 0.00 0.00 0.00 56 1014.5
20260906020714 67 339 3.0 10.0 0.00 0.00 0.00 56 1014.5
20260906015210 65 337 2.0 13.0 0.00 0.00 0.00 59 1014.5
20260906013704 63 0 0.0 11.0 0.00 0.00 0.00 62 1014.5
20260906012159 62 328 1.0 9.0 0.00 0.00 0.00 66 1014.6
20260906010653 63 321 3.0 9.0 0.00 0.00 0.00 66 1014.5
20260906005147 63 284 1.0 7.0 0.00 0.00 0.00 64 1014.5
20260906003644 63 332 2.0 11.0 0.00 0.00 0.00 63 1014.6
20260906002141 63 0 0.0 5.0 0.00 0.00 0.00 66 1014.5
20260906000636 63 0 0.0 10.0 0.00 0.00 0.00 63 1014.4
20260905235132 64 335 1.0 7.0 0.00 0.00 0.00 63 1014.5
20260905233626 65 0 0.0 5.0 0.00 0.00 0.00 59 1014.4
20260905232121 66 7 2.0 10.0 0.00 0.00 0.00 60 1014.3
20260905230618 65 318 2.0 13.0 0.00 0.00 0.00 61 1014.3
20260905225112 64 355 2.0 12.0 0.00 0.00 0.00 64 1014.4
20260905223608 64 0 0.0 10.0 0.00 0.00 0.00 64 1014.4
20260905222102 64 22 1.0 4.0 0.00 0.00 0.00 65 1014.4
20260905220556 64 0 0.0 0.0 0.00 0.00 0.00 63 1014.4
20260905215051 64 0 0.0 3.0 0.00 0.00 0.00 62 1014.2
20260905213548 63 0 0.0 3.0 0.00 0.00 0.00 69 1014.2
20260905212044 62 0 0.0 1.0 0.00 0.00 0.00 75 1014.5
20260905210540 62 329 1.0 3.0 0.00 0.00 0.00 73 1014.3
20260905205035 62 0 0.0 0.0 0.00 0.00 0.00 70 1014.1
20260905203529 63 0 0.0 0.0 0.00 0.00 0.00 69 1014.1
20260905202025 64 325 2.0 6.0 0.00 0.00 0.00 63 1013.8
20260905200522 63 0 0.0 1.0 0.00 0.00 0.00 62 1013.7
20260905195018 62 0 0.0 1.0 0.00 0.00 0.00 65 1013.6
20260905193512 62 0 0.0 1.0 0.00 0.00 0.00 70 1013.6
20260905192007 62 0 0.0 0.0 0.00 0.00 0.00 70 1013.5
20260905190505 61 0 0.0 0.0 0.00 0.00 0.00 77 1013.5
20260905185000 60 0 0.0 0.0 0.00 0.00 0.00 78 1013.5
20260905183454 60 0 0.0 0.0 0.00 0.00 0.00 76 1013.2
20260905180444 59 0 0.0 0.0 0.00 0.00 0.00 74 1013.1
20260905174937 59 0 0.0 5.0 0.00 0.00 0.00 75 1012.9
20260905171927 57 0 0.0 10.0 0.00 0.00 0.00 75 1012.9
20260905170423 56 0 0.0 17.0 0.00 0.00 0.00 80 1013.1
20260905164919 55 139 1.0 5.0 0.00 0.00 0.00 88 1013.2
20260905163415 55 0 0.0 3.0 0.00 0.00 0.00 90 1013.2
20260905161911 54 0 0.0 1.0 0.00 0.00 0.00 90 1013.2
20260905160407 54 0 0.0 0.0 0.00 0.00 0.00 89 1013.1
20260905154904 54 0 0.0 0.0 0.00 0.00 0.00 89 1013.1
20260905153359 54 0 0.0 1.0 0.00 0.00 0.00 89 1013.1
20260905151855 55 0 0.0 0.0 0.00 0.00 0.00 88 1013.0
20260905150352 55 0 0.0 0.0 0.00 0.00 0.00 88 1013.0
20260905144847 55 0 0.0 0.0 0.00 0.00 0.00 88 1012.8
20260905141839 55 0 0.0 0.0 0.00 0.00 0.00 86 1012.5
20260905140334 56 0 0.0 0.0 0.00 0.00 0.00 85 1012.5
20260905134913 56 0 0.0 0.0 0.00 0.00 0.00 83 1012.4
20260905134829 56 0 0.0 0.0 0.00 0.00 0.00 83 1012.4
20260905133325 57 0 0.0 0.0 0.00 0.00 0.00 80 1012.4
20260905130317 58 0 0.0 2.0 0.00 0.00 0.00 73 1012.4
20260905124814 58 131 1.0 11.0 0.00 0.00 0.00 73 1012.3
20260905123310 59 0 0.0 3.0 0.00 0.00 0.00 74 1012.3
20260905121806 59 0 0.0 10.0 0.00 0.00 0.00 72 1012.4
20260905120302 59 0 0.0 11.0 0.00 0.00 0.00 70 1012.3
20260905114758 59 0 0.0 4.0 0.00 0.00 0.00 73 1012.0
20260905113254 60 0 0.0 1.0 0.00 0.00 0.00 71 1011.7
20260905111751 61 0 0.0 5.0 0.00 0.00 0.00 65 1011.8
20260905110246 61 131 2.0 10.0 0.00 0.00 0.00 62 1011.8
20260905104740 61 132 2.0 15.0 0.00 0.00 0.00 63 1011.9
20260905101729 60 0 0.0 11.0 0.00 0.00 0.00 66 1012.2
20260905100224 58 123 3.0 15.0 0.00 0.00 0.00 71 1012.3
20260905094720 56 155 1.0 6.0 0.00 0.00 0.00 83 1012.4
20260905093215 55 0 0.0 0.0 0.00 0.00 0.00 85 1012.2
20260905091712 55 0 0.0 1.0 0.00 0.00 0.00 87 1012.6
20260905090208 55 0 0.0 0.0 0.00 0.00 0.00 88 1012.7
20260905084703 55 0 0.0 0.0 0.00 0.00 0.00 87 1013.1
20260905083200 55 0 0.0 0.0 0.00 0.00 0.00 86 1013.3
20260905081655 56 0 0.0 1.0 0.00 0.00 0.00 85 1013.6
20260905080152 56 0 0.0 0.0 0.00 0.00 0.00 84 1013.6
20260905074648 56 0 0.0 3.0 0.00 0.00 0.00 82 1013.6
20260905073143 57 0 0.0 2.0 0.00 0.00 0.00 81 1013.8
20260905071637 57 302 1.0 5.0 0.00 0.00 0.00 81 1013.6
20260905070132 57 346 3.0 7.0 0.00 0.00 0.00 81 1013.5
20260905064627 58 0 0.0 0.0 0.00 0.00 0.00 81 1013.5
20260905063123 58 0 0.0 0.0 0.00 0.00 0.00 81 1013.6
20260905061619 58 0 0.0 0.0 0.00 0.00 0.00 81 1013.6
20260905054610 58 0 0.0 0.0 0.00 0.00 0.00 83 1013.8
20260905053106 58 0 0.0 0.0 0.00 0.00 0.00 82 1014.0
20260905051601 58 0 0.0 2.0 0.00 0.00 0.00 82 1014.3